Torna al catalogo

OPS 4682 DEB

AttivoPO
NORAD 38415·DEBRIS·🇺🇸 United States

Lanciato Apr 3, 1965 da Vandenberg Space Force Base

Loading…

Prossimi Passaggi (prossime 24 ore)

TLE

AggiornatoSource: Space-Track

Epoca: Sep 13, 2026, 14:32 UTC

1 38415U 65027DU  26256.60595940 -.00000116  00000-0 -39452-3 0  9996
2 38415  90.2529  16.5644 0029360 233.3262 126.5163 13.02440740626448

Traccia OPS 4682 DEB in tempo reale con AllMySat

Download on the App Store